Notices

What's New in latest Release from April 7th, 2021:

- Updated Glossary, including Speed of Maximum Gust, and Total Hourly Precipitation

- Updated national and regional climate services offices contacts and prices information

- Addition of station inventory lists for 1981-2010, 1971-2000, and 1961-1990 Normals.

If you haven't already, please take our survey and provide feedback about our website: https://eccc.sondage-survey.ca/f/LanguageSelection.aspx?s=442ca660-fcf1-47c0-95a9-59707d6fd709

Hourly Data Report for March 28, 2006

TORONTO CITY
ONTARIO

43°40'00.000" N
79°24'00.000" W
112.50 m
6158355
71508
XTO

Download Data

Hourly Data (March 2006)
Hourly Data Report for March 28, 2006
TIME
LST
Temp Definition
°C
Dew Point Definition
°C
Rel Hum Definition
%
Precip. Amount Definition
mm

Wind Dir Definition
10's deg

Wind Spd Definition
km/h
Visibility Definition
km
Stn Press Definition
kPa
Hmdx Definition


Wind Chill Definition


Weather Definition


00:00 5.2 -5.6 46   LegendMM LegendMM   100.89     LegendNANA
01:00 3.7 -4.8 54   LegendMM LegendMM   100.90     LegendNANA
02:00 2.8 -3.9 61   LegendMM LegendMM   100.89     LegendNANA
03:00 3.0 -4.3 59   LegendMM LegendMM   100.85     LegendNANA
04:00 2.7 -4.3 60   LegendMM LegendMM   100.84     LegendNANA
05:00 3.0 -4.4 58   LegendMM LegendMM   100.87     LegendNANA
06:00 3.3 -5.4 53   LegendMM LegendMM   100.90     LegendNANA
07:00 3.6 -5.8 50   LegendMM LegendMM   100.90     LegendNANA
08:00 5.8 -6.4 41   LegendMM LegendMM   100.92     LegendNANA
09:00 7.4 -5.6 39   LegendMM LegendMM   100.92     LegendNANA
10:00 8.2 -5.3 38   LegendMM LegendMM   100.94     LegendNANA
11:00 8.6 -5.4 37   LegendMM LegendMM   100.93     LegendNANA
12:00 9.4 -3.3 41   LegendMM LegendMM   100.90     LegendNANA
13:00 9.8 -3.5 39   LegendMM LegendMM   100.85     LegendNANA
14:00 10.1 -3.4 38   LegendMM LegendMM   100.80     LegendNANA
15:00 10.1 -4.0 37   LegendMM LegendMM   100.77     LegendNANA
16:00 9.4 -4.8 36   LegendMM LegendMM   100.75     LegendNANA
17:00 9.8 -5.8 33   LegendMM LegendMM   100.73     LegendNANA
18:00 10.0 -4.8 35   LegendMM LegendMM   100.74     LegendNANA
19:00 8.4 -5.0 38   LegendMM LegendMM   100.77     LegendNANA
20:00 7.2 -5.9 39   LegendMM LegendMM   100.81     LegendNANA
21:00 6.3 -3.8 48   LegendMM LegendMM   100.82     LegendNANA
22:00 5.3 -4.2 50   LegendMM LegendMM   100.86     LegendNANA
23:00 5.1 -3.5 54   LegendMM LegendMM   100.88     LegendNANA

Notes on Data Quality.

Legend

  • E = Estimated
  • M = Missing
  • NA = Not Available*
  • [empty] = Indicates an unobserved value
Date modified: